EW4986 Weather Reports


time (UTC)temp
F
wind
direction
speed
knots
gust
knots
rain 1hr
in
rain 24hr
in
rain mn
in
humidity
%
barometer
mb
20260508043920 58 163 0.0 0.9 0.00 0.00 0.00 27 1016.8
20260508043914 58 163 0.0 0.0 0.00 0.00 0.00 28 1016.8
20260508042913 59 163 0.0 0.9 0.00 0.00 0.00 25 1016.8
20260508042415 59 163 0.0 0.0 0.00 0.00 0.00 26 1016.7
20260508041914 59 163 0.0 0.9 0.00 0.00 0.00 25 1016.7
20260508041415 60 163 0.0 1.7 0.00 0.00 0.00 24 1016.7
20260508040915 59 172 0.0 1.7 0.00 0.00 0.00 23 1016.7
20260508040415 59 148 0.0 0.0 0.00 0.00 0.00 24 1016.7
20260508035919 60 148 0.0 0.9 0.00 0.00 0.00 22 1016.7
20260508035913 60 148 0.0 0.9 0.00 0.00 0.00 23 1016.6
20260508034916 61 203 0.0 0.0 0.00 0.00 0.00 23 1016.6
20260508034415 61 203 0.0 0.0 0.00 0.00 0.00 22 1016.6
20260508033913 61 204 0.0 0.0 0.00 0.00 0.00 22 1016.5
20260508033414 61 205 0.0 0.0 0.00 0.00 0.00 22 1016.3
20260508032915 61 205 0.0 0.0 0.00 0.00 0.00 22 1016.2
20260508032415 60 205 0.0 0.9 0.00 0.00 0.00 24 1016.2
20260508031914 60 216 0.0 0.9 0.00 0.00 0.00 25 1016.0
20260508031414 61 239 0.0 0.0 0.00 0.00 0.00 26 1016.0
20260508030916 62 239 0.0 0.0 0.00 0.00 0.00 23 1015.9
20260508030414 63 239 0.0 0.0 0.00 0.00 0.00 23 1015.8
20260508025915 64 239 0.0 0.9 0.00 0.00 0.00 20 1015.6
20260508025414 64 239 0.0 0.9 0.00 0.00 0.00 20 1015.6
20260508024917 65 237 0.0 0.9 0.00 0.00 0.00 19 1015.5
20260508024911 65 237 0.0 0.0 0.00 0.00 0.00 20 1015.5
20260508023912 66 237 0.0 0.9 0.00 0.00 0.00 19 1015.5
20260508023412 66 237 0.0 0.9 0.00 0.00 0.00 18 1015.4
20260508022913 65 169 0.0 0.9 0.00 0.00 0.00 19 1015.4
20260508022412 66 169 0.0 0.9 0.00 0.00 0.00 18 1015.3
20260508021915 67 169 0.0 1.7 0.00 0.00 0.00 18 1015.1
20260508021909 66 169 0.0 0.0 0.00 0.00 0.00 18 1015.2
20260508020907 68 169 0.0 1.7 0.00 0.00 0.00 16 1015.1
20260508020408 69 153 0.0 1.7 0.00 0.00 0.00 15 1014.8
20260508015908 69 141 0.0 3.5 0.00 0.00 0.00 15 1014.9
20260508015414 70 195 0.9 3.5 0.00 0.00 0.00 15 1014.8
20260508014907 71 186 0.9 4.3 0.00 0.00 0.00 15 1014.8
20260508014409 71 179 1.7 5.2 0.00 0.00 0.00 14 1014.8
20260508013906 72 153 0.9 5.2 0.00 0.00 0.00 14 1014.7
20260508013405 72 210 0.9 4.3 0.00 0.00 0.00 14 1014.7
20260508012906 73 172 0.9 4.3 0.00 0.00 0.00 14 1014.7
20260508012405 73 200 0.9 3.5 0.00 0.00 0.00 15 1014.6
20260508011908 75 195 1.7 6.1 0.00 0.00 0.00 14 1014.5
20260508011903 74 146 1.7 4.3 0.00 0.00 0.00 13 1014.6
20260508010904 75 200 2.6 6.1 0.00 0.00 0.00 14 1014.5
20260508010405 75 198 2.6 6.1 0.00 0.00 0.00 13 1014.5
20260508005906 76 181 1.7 4.3 0.00 0.00 0.00 13 1014.6
20260508005404 76 164 0.9 3.5 0.00 0.00 0.00 14 1014.5
20260508004904 76 219 0.9 2.6 0.00 0.00 0.00 14 1014.5
20260508004410 75 141 2.6 6.1 0.00 0.00 0.00 13 1014.5
20260508004405 76 153 1.7 6.1 0.00 0.00 0.00 14 1014.5
20260508003407 75 160 1.7 5.2 0.00 0.00 0.00 14 1014.6
20260508003401 75 143 1.7 6.1 0.00 0.00 0.00 13 1014.5
20260508002407 76 159 1.7 4.3 0.00 0.00 0.00 13 1014.6
20260508002402 75 143 1.7 4.3 0.00 0.00 0.00 13 1014.6
20260508001400 75 202 1.7 4.3 0.00 0.00 0.00 13 1014.6
20260508000902 75 152 2.6 5.2 0.00 0.00 0.00 12 1014.7
20260508000359 75 160 1.7 5.2 0.00 0.00 0.00 12 1014.6
20260507235859 75 193 0.9 3.5 0.00 0.00 0.00 13 1014.6
20260507235358 75 226 1.7 5.2 0.00 0.00 0.00 13 1014.7
20260507234857 75 143 1.7 5.2 0.00 0.00 0.00 12 1014.7
20260507234359 76 134 1.7 5.2 0.00 0.00 0.00 12 1014.8
20260507233858 77 136 0.9 3.5 0.00 0.00 0.00 13 1014.8
20260507233854 77 158 0.0 3.5 0.00 0.00 0.00 12 1014.9
20260507232852 77 278 0.9 2.6 0.00 0.00 0.00 12 1014.9
20260507232351 76 297 0.9 3.5 0.00 0.00 0.00 12 1014.9
20260507231850 76 157 1.7 5.2 0.00 0.00 0.00 12 1015.1
20260507231350 76 119 1.7 5.2 0.00 0.00 0.00 12 1015.1
20260507230851 76 96 1.7 4.3 0.00 0.00 0.00 12 1015.1
20260507230348 76 155 0.9 5.2 0.00 0.00 0.00 12 1015.2
20260507225849 76 146 1.7 5.2 0.00 0.00 0.00 12 1015.2
20260507225349 75 205 0.9 3.5 0.00 0.00 0.00 12 1015.4
20260507224848 75 59 0.9 2.6 0.00 0.00 0.00 13 1015.3
20260507224347 76 75 1.7 5.2 0.00 0.00 0.00 12 1015.5
20260507223849 76 169 1.7 5.2 0.00 0.00 0.00 12 1015.5
20260507223349 76 143 0.9 4.3 0.00 0.00 0.00 12 1015.5
20260507222847 77 122 0.9 4.3 0.00 0.00 0.00 11 1015.5
20260507222345 77 148 0.9 4.3 0.00 0.00 0.00 12 1015.8
20260507221847 76 306 0.9 4.3 0.00 0.00 0.00 13 1015.8
20260507221345 76 102 0.9 4.3 0.00 0.00 0.00 13 1015.9
20260507220853 76 141 0.9 2.6 0.00 0.00 0.00 13 1016.1
20260507220847 75 113 0.9 3.5 0.00 0.00 0.00 14 1016.0
20260507220344 75 296 0.9 3.5 0.00 0.00 0.00 15 1016.0
20260507220003 76 234 0.9 1.7 0.00 0.00 0.00 14 1016.2
20260507215508 76 255 0.9 1.7 0.00 0.00 0.00 14 1016.3
20260507214346 75 224 1.7 5.2 0.00 0.00 0.00 13 1016.5
20260507213847 75 167 1.7 5.2 0.00 0.00 0.00 15 1016.6
20260507213345 74 328 0.9 3.5 0.00 0.00 0.00 15 1016.7
20260507212846 74 297 0.9 2.6 0.00 0.00 0.00 15 1016.8
20260507212349 74 87 0.9 3.5 0.00 0.00 0.00 15 1017.0
20260507212343 74 135 0.9 3.5 0.00 0.00 0.00 15 1016.9
20260507211344 74 103 0.9 1.7 0.00 0.00 0.00 15 1017.3
20260507210843 74 288 0.9 4.3 0.00 0.00 0.00 16 1017.4
20260507210345 73 264 1.7 4.3 0.00 0.00 0.00 17 1017.4
20260507205852 73 275 1.7 6.1 0.00 0.00 0.00 17 1017.7
20260507205844 74 203 1.7 5.2 0.00 0.00 0.00 16 1017.5
20260507205345 73 220 1.7 6.1 0.00 0.00 0.00 17 1017.6
20260507204341 74 129 0.9 4.3 0.00 0.00 0.00 17 1017.9
20260507203842 73 131 0.9 3.5 0.00 0.00 0.00 17 1018.0
20260507203341 72 98 0.9 3.5 0.00 0.00 0.00 18 1018.0
20260507202848 72 160 1.7 5.2 0.00 0.00 0.00 17 1018.2
20260507202841 73 347 1.7 5.2 0.00 0.00 0.00 17 1018.1
20260507202502 71 127 0.9 3.5 0.00 0.00 0.00 19 1018.3
20260507201348 72 282 1.7 4.3 0.00 0.00 0.00 18 1018.4
20260507201343 70 148 0.9 4.3 0.00 0.00 0.00 18 1018.3
20260507200341 72 195 1.7 5.2 0.00 0.00 0.00 18 1018.4
20260507195842 73 137 0.9 5.2 0.00 0.00 0.00 17 1018.6
20260507195341 72 212 0.9 3.5 0.00 0.00 0.00 17 1018.6
20260507194841 70 148 0.9 2.6 0.00 0.00 0.00 19 1018.7
20260507194341 68 86 0.9 3.5 0.00 0.00 0.00 18 1018.8
20260507193841 69 312 0.9 7.0 0.00 0.00 0.00 18 1018.9
20260507193346 67 68 1.7 5.2 0.00 0.00 0.00 19 1019.0
20260507193341 69 319 0.9 7.0 0.00 0.00 0.00 20 1018.9
20260507192349 68 92 1.7 5.2 0.00 0.00 0.00 18 1019.3
20260507192344 68 56 2.6 5.2 0.00 0.00 0.00 19 1019.1
20260507191340 69 34 0.9 5.2 0.00 0.00 0.00 19 1019.5
20260507190841 69 153 1.7 3.5 0.00 0.00 0.00 19 1019.5
20260507190341 69 139 1.7 3.5 0.00 0.00 0.00 19 1019.6
20260507185843 69 169 0.9 3.5 0.00 0.00 0.00 19 1019.7
20260507185343 69 229 0.9 2.6 0.00 0.00 0.00 19 1019.7
20260507184843 68 219 0.9 2.6 0.00 0.00 0.00 21 1019.8
20260507184343 66 247 1.7 6.1 0.00 0.00 0.00 22 1020.0
20260507183841 65 290 1.7 6.1 0.00 0.00 0.00 22 1020.1
20260507183347 65 300 0.9 5.2 0.00 0.00 0.00 25 1020.3
20260507183342 65 78 0.9 4.3 0.00 0.00 0.00 23 1020.2
20260507182338 64 39 2.6 5.2 0.00 0.00 0.00 25 1020.4
20260507181839 63 314 1.7 4.3 0.00 0.00 0.00 25 1020.4
20260507181340 64 56 1.7 5.2 0.00 0.00 0.00 25 1020.5
20260507180840 64 260 2.6 7.0 0.00 0.00 0.00 24 1020.5
20260507180340 63 44 2.6 7.0 0.00 0.00 0.00 26 1020.7
20260507175839 63 70 1.7 7.8 0.00 0.00 0.00 26 1020.8
20260507175339 64 342 1.7 7.8 0.00 0.00 0.00 27 1020.9
20260507174844 63 196 1.7 4.3 0.00 0.00 0.00 29 1020.9
20260507174840 64 273 0.9 3.5 0.00 0.00 0.00 29 1020.9
20260507173847 62 37 1.7 4.3 0.00 0.00 0.00 25 1021.0
20260507173841 62 304 1.7 4.3 0.00 0.00 0.00 29 1020.9
20260507172839 62 322 1.7 4.3 0.00 0.00 0.00 25 1021.1
20260507172339 62 80 0.9 5.2 0.00 0.00 0.00 30 1021.1
20260507171839 61 340 1.7 5.2 0.00 0.00 0.00 31 1021.2
20260507171339 61 320 1.7 4.3 0.00 0.00 0.00 31 1021.4
20260507170840 61 312 0.9 4.3 0.00 0.00 0.00 32 1021.5
20260507170346 60 311 0.9 4.3 0.00 0.00 0.00 34 1021.6
20260507170340 60 306 0.9 4.3 0.00 0.00 0.00 31 1021.6
20260507165837 60 335 0.9 3.5 0.00 0.00 0.00 31 1021.7
20260507164838 59 69 1.7 4.3 0.00 0.00 0.00 36 1021.6
20260507164346 59 314 1.7 5.2 0.00 0.00 0.00 37 1021.7
20260507164339 58 321 1.7 5.2 0.00 0.00 0.00 37 1021.7
20260507163339 59 330 0.9 3.5 0.00 0.00 0.00 38 1021.7
20260507162837 58 290 0.9 3.5 0.00 0.00 0.00 38 1021.8
20260507162338 57 13 1.7 3.5 0.00 0.00 0.00 39 1021.8
20260507161842 55 312 1.7 5.2 0.00 0.00 0.00 42 1022.1
20260507161836 56 321 1.7 4.3 0.00 0.00 0.00 40 1021.9
20260507160841 55 304 1.7 6.1 0.00 0.00 0.00 44 1022.1
20260507160834 55 316 1.7 6.1 0.00 0.00 0.00 42 1022.1
20260507155835 55 304 0.9 3.5 0.00 0.00 0.00 46 1022.1
20260507155334 54 345 1.7 4.3 0.00 0.00 0.00 47 1022.1
20260507154837 54 315 1.7 4.3 0.00 0.00 0.00 47 1022.2
20260507154340 53 71 1.7 5.2 0.00 0.00 0.00 50 1022.3
20260507154335 54 341 1.7 4.3 0.00 0.00 0.00 48 1022.2
20260507153334 53 331 1.7 5.2 0.00 0.00 0.00 50 1022.4
20260507152834 53 72 1.7 5.2 0.00 0.00 0.00 51 1022.4
20260507152334 53 90 1.7 5.2 0.00 0.00 0.00 52 1022.4
20260507151833 52 9 1.7 5.2 0.00 0.00 0.00 52 1022.4
20260507151332 52 295 1.7 6.1 0.00 0.00 0.00 54 1022.4
20260507150833 51 310 2.6 7.0 0.00 0.00 0.00 55 1022.4
20260507150827 51 355 1.7 7.0 0.00 0.00 0.00 56 1022.5
20260507145828 50 352 1.7 6.1 0.00 0.00 0.00 57 1022.6
20260507145328 50 324 1.7 5.2 0.00 0.00 0.00 57 1022.6
20260507144833 49 53 1.7 6.1 0.00 0.00 0.00 58 1022.6
20260507144827 49 84 2.6 6.1 0.00 0.00 0.00 58 1022.6
20260507143827 49 65 1.7 6.1 0.00 0.00 0.00 59 1022.8
20260507143325 49 74 1.7 6.1 0.00 0.00 0.00 61 1022.8
20260507142826 48 318 1.7 5.2 0.00 0.00 0.00 62 1022.9
20260507142326 48 22 1.7 5.2 0.00 0.00 0.00 62 1022.8
20260507141825 47 9 2.6 5.2 0.00 0.00 0.00 63 1022.9
20260507141331 46 347 2.6 6.1 0.00 0.00 0.00 65 1022.8
20260507141326 46 331 2.6 6.1 0.00 0.00 0.00 65 1022.8
20260507140325 46 30 1.7 5.2 0.00 0.00 0.00 66 1022.8
20260507135825 46 333 1.7 5.2 0.00 0.00 0.00 66 1022.9
20260507135326 45 330 1.7 5.2 0.00 0.00 0.00 67 1022.8
20260507134833 44 37 2.6 8.7 0.00 0.00 0.00 68 1022.9
20260507134826 45 48 2.6 8.7 0.00 0.00 0.00 68 1022.9
20260507133826 44 48 1.7 7.8 0.00 0.00 0.00 68 1022.8
20260507133336 43 46 1.7 6.1 0.00 0.00 0.00 70 1022.6
20260507133324 44 15 1.7 5.2 0.00 0.00 0.00 70 1022.8
20260507132826 43 70 1.7 5.2 0.00 0.00 0.00 70 1022.9
20260507132327 43 329 1.7 6.1 0.00 0.00 0.00 71 1022.8
20260507131325 43 84 1.7 7.0 0.00 0.00 0.00 71 1022.6
20260507130831 42 327 1.7 8.7 0.00 0.00 0.00 71 1022.6
20260507130826 43 41 1.7 8.7 0.00 0.00 0.00 71 1022.6
20260507125825 42 6 1.7 7.8 0.00 0.00 0.00 71 1022.5
20260507125326 42 51 2.6 8.7 0.00 0.00 0.00 72 1022.5
20260507124824 42 22 2.6 8.7 0.00 0.00 0.00 72 1022.4
20260507124326 42 342 1.7 6.1 0.00 0.00 0.00 72 1022.4
20260507123824 41 312 1.7 6.1 0.00 0.00 0.00 73 1022.4
20260507123324 41 30 1.7 6.1 0.00 0.00 0.00 74 1022.4
20260507122824 40 12 1.7 6.1 0.00 0.00 0.00 74 1022.3
20260507122324 41 2 1.7 6.1 0.00 0.00 0.00 73 1022.2
20260507121825 41 356 1.7 6.1 0.00 0.00 0.00 73 1022.2
20260507121325 41 34 1.7 4.3 0.00 0.00 0.00 73 1022.2
20260507120826 41 342 1.7 4.3 0.00 0.00 0.00 73 1022.2
20260507120324 40 313 0.9 5.2 0.00 0.00 0.00 73 1022.3
20260507115824 40 19 0.9 5.2 0.00 0.00 0.00 72 1022.3
20260507115324 40 333 0.9 4.3 0.00 0.00 0.00 71 1022.3
20260507114824 40 12 0.9 3.5 0.00 0.00 0.00 71 1022.2
20260507114324 41 326 0.9 5.2 0.00 0.00 0.00 70 1022.2
20260507113827 41 72 1.7 6.1 0.00 0.00 0.00 69 1022.1
20260507113823 41 322 1.7 6.1 0.00 0.00 0.00 69 1022.2
20260507112822 41 295 1.7 6.1 0.00 0.00 0.00 69 1022.1
20260507112320 41 11 0.9 6.1 0.00 0.00 0.00 69 1022.1
20260507111822 41 38 0.9 4.3 0.00 0.00 0.00 68 1022.2
20260507111320 41 338 0.9 4.3 0.00 0.00 0.00 68 1022.2
20260507110819 41 319 0.9 3.5 0.00 0.00 0.00 67 1022.1
20260507110318 41 25 0.9 3.5 0.00 0.00 0.00 66 1022.2
20260507105818 42 349 0.9 4.3 0.00 0.00 0.00 65 1022.3
20260507105318 42 348 1.7 6.1 0.00 0.00 0.00 65 1022.2
20260507104819 42 345 1.7 6.1 0.00 0.00 0.00 65 1022.2
20260507104316 42 310 1.7 5.2 0.00 0.00 0.00 64 1022.2
20260507103817 42 24 0.9 3.5 0.00 0.00 0.00 64 1022.2
20260507103316 42 323 0.9 3.5 0.00 0.00 0.00 64 1022.3
20260507102822 42 41 0.9 2.6 0.00 0.00 0.00 65 1022.2
20260507102816 42 84 0.0 2.6 0.00 0.00 0.00 65 1022.3
20260507101817 43 316 0.0 2.6 0.00 0.00 0.00 65 1022.1
20260507101322 43 328 0.9 3.5 0.00 0.00 0.00 64 1022.1
20260507101317 43 339 0.0 3.5 0.00 0.00 0.00 64 1022.2
20260507100319 43 27 0.9 3.5 0.00 0.00 0.00 63 1022.1
20260507095815 43 47 0.9 3.5 0.00 0.00 0.00 61 1021.9
20260507095319 44 346 0.9 4.3 0.00 0.00 0.00 59 1021.9
20260507095314 44 42 0.9 4.3 0.00 0.00 0.00 59 1021.9
20260507094315 44 321 0.9 5.2 0.00 0.00 0.00 56 1021.9
20260507093816 44 328 0.9 5.2 0.00 0.00 0.00 54 1021.9
20260507093315 44 356 0.9 3.5 0.00 0.00 0.00 48 1021.9
20260507092814 44 335 0.9 3.5 0.00 0.00 0.00 46 1021.9
20260507092315 45 347 0.9 3.5 0.00 0.00 0.00 44 1021.9
20260507091814 45 11 1.7 3.5 0.00 0.00 0.00 43 1021.9
20260507091312 45 18 1.7 4.3 0.00 0.00 0.00 41 1021.9
20260507090814 45 300 0.9 4.3 0.00 0.00 0.00 40 1021.9
20260507090315 45 309 0.9 4.3 0.00 0.00 0.00 39 1021.9
20260507085811 46 315 0.9 4.3 0.00 0.00 0.00 39 1021.8
20260507085310 45 301 0.0 1.7 0.00 0.00 0.00 40 1021.7
20260507084810 45 267 0.0 0.9 0.00 0.00 0.00 40 1021.7
20260507084309 45 158 0.0 0.0 0.00 0.00 0.00 40 1021.6
20260507083806 45 158 0.0 0.0 0.00 0.00 0.00 42 1021.7
20260507083308 46 158 0.0 0.9 0.00 0.00 0.00 40 1021.6
20260507082809 45 157 0.0 0.9 0.00 0.00 0.00 40 1021.6
20260507082309 45 155 0.0 0.0 0.00 0.00 0.00 42 1021.6
20260507081808 46 155 0.0 0.9 0.00 0.00 0.00 42 1021.6
20260507081309 45 155 0.0 0.9 0.00 0.00 0.00 40 1021.4
20260507080807 46 77 0.0 0.0 0.00 0.00 0.00 40 1021.2
20260507080306 46 77 0.0 0.0 0.00 0.00 0.00 41 1021.2
20260507075806 47 77 0.0 1.7 0.00 0.00 0.00 40 1021.4
20260507075313 47 78 0.0 2.6 0.00 0.00 0.00 39 1021.4
20260507075307 47 77 0.0 2.6 0.00 0.00 0.00 38 1021.4
20260507074310 47 139 0.0 0.9 0.00 0.00 0.00 39 1021.4
20260507074306 47 76 0.0 1.7 0.00 0.00 0.00 39 1021.2
20260507073925 48 139 0.0 2.6 0.00 0.00 0.00 37 1021.1
20260507073305 47 139 0.0 0.9 0.00 0.00 0.00 38 1021.2
20260507072805 47 139 0.0 0.9 0.00 0.00 0.00 38 1021.2
20260507071806 48 139 0.0 2.6 0.00 0.00 0.00 36 1021.1
20260507071305 49 307 0.0 2.6 0.00 0.00 0.00 35 1021.1
20260507070806 49 307 0.9 2.6 0.00 0.00 0.00 34 1021.0
20260507070311 50 316 1.7 5.2 0.00 0.00 0.00 34 1020.8
20260507070304 50 319 1.7 5.2 0.00 0.00 0.00 34 1020.9
20260507065306 50 306 1.7 5.2 0.00 0.00 0.00 34 1020.7
20260507064809 50 315 0.0 2.6 0.00 0.00 0.00 37 1020.7
20260507064804 50 302 0.9 3.5 0.00 0.00 0.00 35 1020.8
20260507063805 50 308 0.0 2.6 0.00 0.00 0.00 37 1020.8
20260507063306 50 350 0.0 0.9 0.00 0.00 0.00 38 1020.9
20260507062805 50 350 0.0 1.7 0.00 0.00 0.00 38 1020.9
20260507062305 50 314 0.0 1.7 0.00 0.00 0.00 38 1020.9
20260507061802 50 331 0.0 1.7 0.00 0.00 0.00 38 1020.8
20260507061304 50 312 0.0 1.7 0.00 0.00 0.00 39 1020.8
20260507060800 50 248 0.0 0.9 0.00 0.00 0.00 41 1020.8
20260507060300 51 248 0.0 0.9 0.00 0.00 0.00 40 1020.8
20260507055801 51 248 0.0 0.9 0.00 0.00 0.00 40 1020.7
20260507055305 52 297 0.0 0.9 0.00 0.00 0.00 39 1020.7
20260507054801 52 297 0.0 3.5 0.00 0.00 0.00 38 1020.5
20260507054301 52 297 0.0 3.5 0.00 0.00 0.00 39 1020.5
20260507053806 53 327 0.9 3.5 0.00 0.00 0.00 39 1020.5
20260507053801 53 335 0.0 2.6 0.00 0.00 0.00 40 1020.5
20260507053302 53 341 0.9 3.5 0.00 0.00 0.00 39 1020.5
20260507052300 53 324 0.9 4.3 0.00 0.00 0.00 40 1020.4
20260507051800 54 331 0.9 4.3 0.00 0.00 0.00 40 1020.4
20260507051300 53 330 0.0 2.6 0.00 0.00 0.00 42 1020.3
20260507050805 54 328 0.0 1.7 0.00 0.00 0.00 45 1020.2
20260507050759 54 340 0.0 0.9 0.00 0.00 0.00 44 1020.3
20260507045805 55 304 0.0 1.7 0.00 0.00 0.00 44 1020.1
20260507045759 54 314 0.0 1.7 0.00 0.00 0.00 45 1020.2
20260507044759 55 316 0.0 1.7 0.00 0.00 0.00 44 1020.1
20260507044256 55 305 0.9 4.3 0.00 0.00 0.00 44 1020.0